USA 153

Last updated on June 27, 2019, 3:44 a.m. UTC

1 26575U 00065A   19177.01229904 -.00000320  00000-0  00000+0 0  9993
2 26575   7.3190  51.8783 0000885 357.6093   3.2184  1.00269403  6068
UTC
Height (km)
Latitude
Longitude
Inclination
Orbital Period
UTC large
Height (km)
Speed (km/s)
/
Latitude / Longitude
Inclination (degrees)
Orbital Period (minutes)
Azimuth
Elevation
Range (km)
Doppler Factor
iOS Compass Heading
iOS Angle

Next 30 passes for location: Hong Kong

Rise time Rise Azimuth (degrees) Set time Set Azimuth (degrees) Duration Max altitude (degrees)

No matching passes for this satellites